GLOBALSTAR M097 [+]

Last updated on July 6, 2021, 3:36 p.m. UTC

1 39072U 13005A   21186.86645898 -.00000105  00000-0 -72189-5 0  9992
2 39072  52.0065 345.0107 0000689  72.2873 287.8069 12.62267657388747
UTC
Height (km)
Latitude
Longitude
Inclination
Orbital Period
UTC large
Height (km)
Speed (km/s)
/
Latitude / Longitude
Inclination (degrees)
Orbital Period (minutes)
Azimuth
Elevation
Range (km)
Doppler Factor
iOS Compass Heading
iOS Angle